Regional Weather Roundup
Issued by NWS Upton, NY

Home | Current Version | Previous Version | Text Only | Print | Product List | Glossary On
Versions: 1 2 3 4 5 6 7 8 9 10 11 12 13 14 15 16 17 18 19 20 21 22 23 24 25 26 27 28 29 30 31 32 33 34 35 36 37 38 39 40 41 42 43 44 45 46 47 48 49 50
000
ASUS41 KOKX 260304
RWROKX

REGIONAL WEATHER ROUNDUP
NATIONAL WEATHER SERVICE NEW YORK NY
1100 PM EDT WED MAY 25 2016

NOTE: "FAIR" INDICATES FEW OR NO CLOUDS BELOW 12,000 FEET WITH NO
SIGNIFICANT WEATHER AND/OR OBSTRUCTIONS TO VISIBILITY.

NYZ071-072-176-178-NJZ106-104-260400-
NEW YORK CITY METRO AREA


CITY           SKY/WX    TMP DP  RH WIND       PRES   REMARKS
CENTRAL PARK   CLEAR     78  46  32 VRB7      30.08S
LAGUARDIA APRT PTCLDY    81  53  37 SW12      30.04S
KENNEDY INTL   PTCLDY    74  49  41 W9        30.06S
NEWARK/LIBERTY PTCLDY    78  47  33 SW13      30.05S
BRNX BOT. GARD   N/A     79  46  31 SW14      30.06F
TETERBORO      CLEAR     75  45  34 CALM      30.04S
$$

NYZ177-179-078>081-260400-
LONG ISLAND NEW YORK

CITY           SKY/WX    TMP DP  RH WIND       PRES   REMARKS
FARMINGDALE    PTCLDY    68  54  60 W5        30.05F
ISLIP          PTCLDY    65  55  70 CALM      30.06R
SHIRLEY        CLEAR     65  55  70 SW5       30.06S
RIVERHEAD        N/A     66  54  63 CALM      30.05S
WESTHAMPTON    NOT AVBL
EAST HAMPTON   FAIR      69  47  46 SW7       30.05R
MONTAUK POINT    N/A     68  49  50 W3        30.06R
$$

NYZ052-065-067-260400-
HUDSON VALLEY

CITY           SKY/WX    TMP DP  RH WIND       PRES   REMARKS
WHITE PLAINS   CLEAR     69  51  52 CALM      30.06S
NEWBURGH       PTCLDY    70  59  68 CALM      30.07R
MONTGOMERY     CLOUDY    65  58  78 CALM      30.05S
POUGHKEEPSIE   CLOUDY    68  58  70 CALM      30.04R
ALBANY         CLEAR     67  54  63 SW6       30.04R
$$

NJZ001-105-106-008-010-013-015-019>022-104-260400-
NEW JERSEY

CITY           SKY/WX    TMP DP  RH WIND       PRES   REMARKS
NEWARK/LIBERTY PTCLDY    78  47  33 SW13      30.05S
TETERBORO      CLEAR     75  45  34 CALM      30.04S
CALDWELL       CLEAR     72  50  45 S5        30.06S
MORRISTOWN     CLEAR     64  48  55 CALM      30.07S
SOMERVILLE     CLEAR     63  55  75 CALM      30.06R
SUSSEX         CLEAR     63  54  72 CALM      30.08R
ANDOVER          N/A     63  56  78 CALM      30.09R
TRENTON        CLEAR     73  50  44 SW6       30.08S
MILLVILLE      CLEAR     62  56  80 SW3       30.11F
ATLANTIC CITY  CLEAR     69  55  60 SW3       30.10F
WRIGHTSTOWN    CLEAR     69  54  59 W5        30.07S
TOMS RIVER     CLEAR     66  48  52 W7        30.10S
BELMAR         CLEAR     72  51  47 SW8       30.09F
$$

PAZ047>061-062-071-260400-
EASTERN PENNSYLVANIA

CITY           SKY/WX    TMP DP  RH WIND       PRES   REMARKS
PHILADELPHIA   PTCLDY    73  53  49 SW6       30.10S
ALLENTOWN      CLEAR     69  50  50 SW5       30.09R
SCRANTON       CLEAR     71  50  47 CALM      30.09S
$$

CTZ002-004>006-009-010-012-RIZ004-006-007-MAZ004-011-015-260400-
SOUTHERN NEW ENGLAND
 IN CT

CITY           SKY/WX    TMP DP  RH WIND       PRES   REMARKS
BRADLEY INTL   MOCLDY    72  52  49 CALM      30.03R
HARTFORD       PTCLDY    74  52  46 CALM      30.03R
DANBURY        CLEAR     63  54  72 SW5       30.07S
WTRBRY/OXFORD    N/A     64  50  59 CALM      30.07F
BRIDGEPORT     CLEAR     68  53  58 CALM      30.04S
MERIDEN        CLEAR     63  56  78 CALM      30.04S
NEW HAVEN      CLEAR     65  52  62 S5        30.04S
CHESTER        FAIR      70  50  49 VRB6      30.06S
GROTON         CLEAR     69  52  54 W6        30.03S
WILLIMANTIC    MOCLDY    73  52  47 S3        30.04R

 IN RI

CITY           SKY/WX    TMP DP  RH WIND       PRES   REMARKS
PROVIDENCE     PTCLDY    74  48  39 W8        30.02S
BLOCK ISLAND   CLEAR     63  50  62 W9        30.06R
WESTERLY       CLEAR     70  48  45 W3        30.04S

 IN MA

CITY           SKY/WX    TMP DP  RH WIND       PRES   REMARKS
BOSTON         CLEAR     77  52  41 W12       29.98R
WORCESTER      CLEAR     70  50  49 W9        30.05R
WESTFIELD      CLEAR     62  56  80 CALM      30.03R
PROVINCETOWN   PTCLDY    61  55  81 SW10      29.99R
NANTUCKET      PTCLDY    61  51  70 W14       30.02S
$$

ANZ330-335-338-340-345-350-353-355-260400-
COASTAL MARINE OBSERVATIONS


STATION/POSITION TIME  SKY/WX   TEMP    WIND        PRES    VSBY  WAVE
                                AIR SEA DIR/SP/G                  HT/PER
                 (UTC)          (F)     (DEG/KT/KT) (MB)    (MI)  (FT/S)
NY HARB ENTRANCE 0150            64 61  200/  8/ 10 1017.6          2/ 8
20S FIRE ISLAND  0150            62 57  220/ 14/ 16 1017.5          3/ 8
GREAT SOUTH BAY  0200            66 66  250/ 10/ 12   N/A
23 SSW MONTAUK P 0250            59 54  240/ 12/ 14 1017.1          3/ 9
15 E BARNEGAT LI 0222               56                N/A           3/ 8
HUDSON CANYON    0150            59 55              1018.9          3/ 6
KINGS POINT      0200               60              1017.4
EXECUTION ROCKS  NOT AVBL
CENTRAL LI SOUND 0200            64     260/  8/  8   N/A           1/ 2
EASTERN LI SOUND 0200            62 53  280/  8/ 10   N/A
ROBBINS REEF     0200                   240/ 14/ 17 1017.0
$$


>>>>>>>>>>>>>>>>>>>>>>>>>>>> KEY <<<<<<<<<<<<<<<<<<<<<<<<<<<
>                                                          <
>     SKY/WX - SKY CONDITION/PRESENT WEATHER               <
>     TMP    - TEMPERATURE IN FAHRENHEIT                   <
>     DP     - DEWPOINT IN FAHRENHEIT                      <
>     RH     - RELATIVE HUMIDITY IN PERCENT                <
>     WIND   - DIRECTION AND SPEED IN MPH                  <
>     PRES   - MEAN SEA LEVEL PRESSURE IN INCHES OF HG     <
>     WCI    - WIND CHILL INDEX                            <
>     VSB    - VISIBILITY IN MILES                         <
>     HX     - HEAT INDEX                                  <
>     TC     - TEMPERATURE IN CELSIUS                      <
>     VRB    - VARIABLE WIND DIRECTION                     <
>                                                          <
>>>>>>>>>>>>>>>>>>>>>>>>>>>> KEY <<<<<<<<<<<<<<<<<<<<<<<<<<<





USA.gov is the U.S. government's official web portal to all federal, state and local government web resources and services.